Location: Dover
(48.8500°N, 53.9833°W)
Time: 15:05:45
(UTC+00:00)

Daily predictions for brighter satellites

Satellite Brightness Start Highest point End
(mag) Time Altitude Azimuth Time Altitude Azimuth Time Altitude Azimuth
Cosmos 1844 4.4 20:21:29 10° SW 20:27:10 59° WNW 20:32:52 10° NNE
ATLAS 2AS CENTAUR R/B 4.1 20:24:28 10° NW 20:29:48 23° N 20:35:04 10° NE
Cosmos 1674 Rocket 4.1 20:25:48 10° NNW 20:30:09 66° W 20:34:26 10° S
IRS-1C 4.3 20:30:11 10° SE 20:35:19 52° ENE 20:40:28 10° N
SL-4 R/B 3.3 20:32:47 10° W 20:35:54 34° SSW 20:39:09 10° SSE
Cosmos 2221 Rocket 3.7 20:33:33 10° N 20:38:04 83° W 20:42:31 10° S
CBERS-1 4.3 20:33:52 10° S 20:38:57 74° WSW 20:44:06 10° NNW
Cosmos 2100 Rocket 4.3 20:34:05 10° SSW 20:40:15 75° W 20:46:26 10° N
Cosmos 1459 Rocket 4.2 20:34:49 10° SSW 20:41:06 81° W 20:47:31 10° N
IGS 5A 3.5 20:40:41 10° S 20:44:39 81° WSW 20:48:41 10° NNW
Cosmos 2263 Rocket 4.4 20:43:23 10° WNW 20:46:23 14° NNW 20:49:23 10° N
YAOGAN 1 3.9 20:43:43 10° ESE 20:46:37 18° ENE 20:49:32 10° NNE
SMAP 3.0 20:43:11 10° SSE 20:47:49 74° ENE 20:52:29 10° N
Cosmos 1844 Rocket 3.9 20:44:15 10° WSW 20:49:26 38° NW 20:54:38 10° NNE
RESURS DK-1 3.4 20:48:14 10° N 20:51:35 25° NE 20:54:55 10° ESE
DNEPR-1 R/B 3.9 20:47:43 10° NW 20:52:09 81° SW 20:57:16 10° SE
USA 215 3.8 20:48:39 10° SE 20:55:08 63° SW 21:01:38 10° WNW
ATLAS CENTAUR R/B 2.0 20:52:08 10° WSW 20:55:25 40° NW 20:58:45 10° NNE
Resurs 01 Rocket 3.6 20:57:28 11° NE 20:57:28 11° NE 20:58:21 10° NE
BREEZE M DEB (TANK) 4.5 20:34:58 10° WSW 20:58:16 90° SE 21:02:49 14° E
Cosmos 2061 Rocket 4.0 20:52:28 10° S 20:58:41 62° E 21:04:50 10° NNE
SAR-Lupe-1 3.9 20:56:07 10° SSE 20:59:39 77° ENE 21:03:15 10° NNW
Cosmos 1833 Rocket 2.7 20:55:15 10° NNW 21:00:57 89° WSW 21:06:36 10° SSE
ATLAS 5 CENTAUR R/B 1.6 20:56:41 10° NW 21:00:57 79° NE 21:06:18 10° SE
Landsat 7 3.7 20:56:32 10° SSE 21:01:09 72° ENE 21:05:48 10° N
Aureole 3 Rocket 3.9 21:00:02 10° SE 21:01:44 16° E 21:01:44 16° E
Iridium 4 Rocket 4.2 20:59:52 10° SSW 21:04:56 54° W 21:09:37 10° N
CZ-2D R/B 4.1 21:02:12 10° SE 21:05:55 33° ENE 21:09:42 10° N
ARIANE 6 FM1 Upper Stage 4.4 21:03:00 10° W 21:06:13 23° NNW 21:09:25 10° NNE
ISS -1.9 21:04:52 10° S 21:07:09 17° SE 21:08:24 15° ESE
Cosmos 1725 Rocket 4.3 21:01:43 10° SSW 21:07:58 76° W 21:14:20 10° N
CZ-2D R/B 2.7 21:06:23 10° SSE 21:09:32 85° WSW 21:12:43 10° NNW
Geosat FO 3.9 21:07:34 10° SE 21:10:28 79° ENE 21:13:21 10° NNW
Helios 1A Rocket 3.9 21:10:37 18° E 21:10:37 18° E 21:12:58 10° SE
Cosmos 2233 Rocket 4.0 21:04:18 10° S 21:10:36 82° E 21:16:57 10° N
SJ-12 3.7 21:06:58 10° SSE 21:10:46 89° WSW 21:14:35 10° NNW
AQUARIUS 4.0 21:08:14 10° SSE 21:12:38 76° ENE 21:17:03 10° N
SAR-Lupe-4 4.1 21:09:18 10° S 21:12:51 63° WSW 21:16:26 10° NNW
Meteor 2-12 Rocket 4.4 21:09:34 10° N 21:15:38 60° ENE 21:21:36 10° SSE
MOS 1 Rocket 3.1 21:13:05 10° SSE 21:17:17 60° ENE 21:21:41 10° N
Cosmos 1763 Rocket 3.5 21:13:33 10° NNW 21:18:44 57° ENE 21:23:48 10° SE
Cosmos 2344 4.3 21:12:35 10° NW 21:19:33 39° NNE 21:25:38 18° E
Cosmos 2058 3.6 21:16:09 10° N 21:19:39 29° ENE 21:23:08 10° SE
Cosmos 1782 Rocket 3.7 21:16:08 10° SSW 21:20:35 80° W 21:25:02 10° N
Cosmos 1269 Rocket 4.0 21:15:23 10° SSW 21:20:39 87° ESE 21:25:58 10° NNE
Cosmos 540 Rocket 3.6 21:16:52 10° NNW 21:21:54 52° ENE 21:26:53 10° SE
Cosmos 1140 Rocket 3.4 21:20:20 10° SSW 21:25:31 85° ESE 21:30:43 10° NNE
IRS-P3 4.2 21:23:33 10° SSE 21:28:53 82° WSW 21:34:15 10° NNW
Cosmos 1300 Rocket 4.2 21:25:20 10° SSW 21:29:40 58° WNW 21:34:00 10° N
SL-12 R/B(2) 4.4 21:24:07 10° SSW 21:31:48 58° ESE 21:40:10 13° NE
Cosmos 2251 Rocket 4.2 21:28:11 10° SSE 21:32:45 31° E 21:34:29 25° ENE
SL-19 R/B 4.2 21:27:46 10° SE 21:32:49 52° ENE 21:37:52 10° N
USA 281 3.9 21:33:30 22° E 21:36:35 33° NE 21:42:18 10° NNW
Cosmos 2151 Rocket 4.3 21:33:21 10° SSE 21:37:18 31° E 21:37:40 31° E
Cosmos 2084 Rocket 3.7 21:33:44 10° SW 21:37:53 64° NW 21:40:25 23° NNE
Cosmos 1975 Rocket 3.5 21:34:35 10° NNW 21:38:53 64° W 21:43:11 10° S
IRAS Rocket 4.1 21:38:20 10° SSE 21:43:53 73° ENE 21:49:24 10° NNW
Geosat 4.0 21:40:21 17° SE 21:44:02 55° NE 21:48:56 10° NNW
SKYMED 2 3.4 21:42:07 10° NNE 21:46:28 70° ESE 21:50:48 10° S
SL-16 R/B 4.2 21:42:04 10° N 21:47:30 32° WNW 21:52:54 10° WSW
SJ-7 4.0 21:45:12 10° SSE 21:48:52 71° ENE 21:52:33 10° N
Cosmos 1869 3.1 21:50:02 10° SSW 21:53:34 73° W 21:56:09 17° N
Cosmos 1072 Rocket 4.4 21:48:07 10° S 21:54:07 59° E 22:00:08 10° NNE
ARIANE 5 R/B 4.1 21:50:10 10° SSW 21:54:42 35° W 21:59:17 10° NNW
Cosmos 841 Rocket 4.1 21:50:23 10° N 21:55:13 35° ENE 21:55:17 35° ENE
COSMO-SKYMED 1 2.3 21:54:15 34° NE 21:55:52 62° ESE 21:59:56 10° S
Timation 1 Rocket 4.3 21:51:03 10° NNW 21:57:03 88° WSW 22:03:02 10° SSE
BREEZE-M DEB (TANK) 2.4 21:55:03 10° WSW 21:57:43 75° SSE 21:59:10 42° E
Cosmos 2082 Rocket 2.1 21:55:44 10° NNW 22:01:20 66° ENE 22:04:15 29° SE
Cosmos 2026 Rocket 4.3 21:56:16 10° N 22:01:55 38° ENE 22:02:21 38° E
Cosmos 2278 Rocket 2.1 22:00:12 10° SSW 22:05:50 74° ESE 22:08:43 30° NE
CZ-4C R/B 3.7 22:02:17 10° WNW 22:06:24 25° NNW 22:09:41 16° NNE
Cosmos 468 Rocket 3.8 22:01:36 10° NNW 22:06:51 78° ENE 22:10:00 24° SSE
Cosmos 1943 Rocket 2.0 22:04:53 10° SSW 22:10:30 83° ESE 22:13:21 31° NNE
Cosmos 1190 Rocket 4.0 22:07:22 10° S 22:12:31 55° ESE 22:12:56 54° E
SPOT 1/Viking Rocket 4.2 22:11:40 10° S 22:16:43 55° W 22:21:50 10° NNW
Cosmos 1812 4.2 22:15:42 10° SSW 22:16:55 22° SW 22:16:55 22° SW
YAOGAN 1 3.1 22:17:53 10° S 22:22:04 57° W 22:26:18 10° NNW
ATLAS 2AS CENTAUR R/B 3.3 22:16:33 10° NW 22:22:44 35° NNE 22:23:24 34° NE
Nadezhda 4 Rocket 3.9 22:16:47 10° N 22:23:09 90° ESE 22:29:23 10° S
Cosmos 44 Rocket 3.1 22:19:00 10° SSW 22:23:40 73° SE 22:23:40 73° SE
COSMOS 2406 3.2 22:20:11 10° NNW 22:25:48 58° ENE 22:25:49 58° ENE
Cosmos 1627 Rocket 4.5 22:20:15 10° N 22:26:09 54° ENE 22:26:09 54° ENE
Resurs 1-3 4.2 22:22:46 10° S 22:26:58 54° W 22:31:13 10° NNW
Cosmos 1954 Rocket 4.3 22:21:50 10° S 22:26:02 50° SSE 22:26:02 50° SSE
Cosmos 407 Rocket 4.0 22:22:03 10° SW 22:27:10 58° WNW 22:30:15 23° N
RESURS DK-1 3.5 22:25:22 10° NW 22:29:09 41° WSW 22:30:35 29° SSW
PSLV R/B 4.4 22:26:36 10° S 22:30:29 45° W 22:34:24 10° NNW
ATLAS CENTAUR R/B 3.8 22:30:46 10° NW 22:31:24 10° NNW 22:31:38 10° NNW
Resurs 01 Rocket 3.0 22:34:53 28° N 22:34:53 28° N 22:37:02 10° N
Okean 2 Rocket 4.4 22:28:27 10° S 22:30:42 30° S 22:30:42 30° S
Meteor 2-3 Rocket 3.7 22:29:58 10° N 22:35:11 64° NE 22:35:11 64° NE
Timation 2 Rocket 4.4 22:29:14 10° SW 22:36:06 70° WNW 22:40:30 24° NNE
Cosmos 2195 Rocket 4.3 22:30:37 10° N 22:36:57 79° E 22:40:20 30° SSE
Cosmos 1536 Rocket 4.2 22:36:10 10° NNW 22:40:31 55° W 22:42:03 36° SSW
SJ 16-02 3.2 22:37:02 10° SSW 22:38:28 21° SSW 22:38:28 21° SSW
ATLAS 5 CENTAUR R/B 4.3 22:39:55 10° WNW 22:43:15 19° WSW 22:47:02 10° SSW
ISS -1.2 22:40:11 10° WSW 22:41:21 20° WSW 22:41:21 20° WSW
Cosmos 489 Rocket 4.5 22:41:58 10° NNW 22:48:16 78° WSW 22:50:15 46° S
BREEZE-M DEB (TANK) 3.9 22:57:25 10° WSW 23:00:15 67° WSW 23:00:15 67° WSW
Cosmos 2251 Rocket 4.5 23:09:46 10° SW 23:14:47 44° WNW 23:14:56 44° NW
Cosmos 2034 Rocket 4.5 23:12:46 10° SSW 23:18:51 57° WNW 23:25:03 10° N
USA 281 3.3 23:20:23 67° SW 23:20:41 68° WSW 23:27:16 10° NNW
Cosmos 2344 3.9 23:26:48 10° NW 23:34:48 81° SW 23:35:41 74° S
Cosmos 2082 Rocket 4.2 23:40:37 10° NW 23:44:54 23° WSW 23:46:09 21° WSW
Cosmos 2278 Rocket 4.1 23:45:53 10° W 23:50:30 25° NW 23:50:34 25° NW
Cosmos 1943 Rocket 4.2 23:50:33 10° W 23:54:52 23° NW 23:54:52 23° NW
